When you browse on this site, cookies collect data to enhance your experience and personalize the content and advertising you see.
Visit our Privacy Policy to learn more. By continuing to use the site, you agree to this use of cookies and data.
  • In Hungary
  • List of Countries
  • For 7 days
  • Water Temperature
  • Satellite Maps
  • Weather Map
  • News
  • Weather Widgets
  • user-avatar
    Login

    Hourly Weather Przewloka

    Today, 23 May, Thursday

    Time Temperature Precipitation Wind Pressure Humidity
    00:00 +14°C° 0 mm 1 mps 742 mmHg 92%
    01:00 +13°C° 0 mm 1 mps 742 mmHg 93%
    02:00 +13°C° 0 mm 1 mps 742 mmHg 94%
    03:00 +13°C° 0 mm 1 mps 742 mmHg 94%
    04:00 +13°C° 0 mm 1 mps 742 mmHg 94%
    05:00 +13°C° 0 mm 1 mps 742 mmHg 94%
    06:00 +15°C° 0 mm 1 mps 742 mmHg 88%
    07:00 +18°C° 0 mm 1 mps 743 mmHg 82%
    08:00 +20°C° 0 mm 1 mps 743 mmHg 76%
    09:00 +19°C° 0.4 mm 0 mps 743 mmHg 71%
    10:00 +21°C° 0.4 mm 0 mps 743 mmHg 65%
    11:00 +22°C° 0.4 mm 0 mps 743 mmHg 60%
    12:00 +23°C° 0 mm 0 mps 743 mmHg 56%
    13:00 +26°C° 0 mm 1 mps 743 mmHg 51%
    14:00 +26°C° 0 mm 1 mps 743 mmHg 47%
    15:00 +25°C° 0.3 mm 2 mps 742 mmHg 52%
    16:00 +25°C° 0.3 mm 2 mps 742 mmHg 57%
    17:00 +24°C° 0.3 mm 3 mps 742 mmHg 62%
    18:00 +21°C° 0.5 mm 2 mps 742 mmHg 71%
    19:00 +20°C° 0.5 mm 2 mps 742 mmHg 79%
    20:00 +18°C° 0.5 mm 2 mps 742 mmHg 87%
    21:00 +17°C° 0.5 mm 2 mps 743 mmHg 90%
    22:00 +17°C° 0.5 mm 2 mps 743 mmHg 93%
    23:00 +16°C° 0.5 mm 3 mps 743 mmHg 96%

    Tomorrow, 24 May, Friday

    Time Temperature Precipitation Wind Pressure Humidity
    00:00 +14°C° 0.1 mm 3 mps 743 mmHg 96%
    01:00 +14°C° 0.1 mm 3 mps 744 mmHg 96%
    02:00 +13°C° 0.1 mm 4 mps 744 mmHg 96%
    03:00 +12°C° 0 mm 3 mps 744 mmHg 96%
    04:00 +12°C° 0 mm 3 mps 744 mmHg 96%
    05:00 +11°C° 0 mm 3 mps 744 mmHg 96%
    06:00 +12°C° 0 mm 3 mps 744 mmHg 94%
    07:00 +12°C° 0 mm 3 mps 744 mmHg 93%
    08:00 +13°C° 0 mm 2 mps 744 mmHg 91%
    09:00 +15°C° 0 mm 2 mps 744 mmHg 83%
    10:00 +17°C° 0 mm 2 mps 744 mmHg 75%
    11:00 +19°C° 0 mm 2 mps 744 mmHg 67%
    12:00 +20°C° 0 mm 3 mps 744 mmHg 65%
    13:00 +21°C° 0 mm 3 mps 744 mmHg 62%
    14:00 +22°C° 0 mm 3 mps 744 mmHg 60%
    15:00 +22°C° 0 mm 3 mps 743 mmHg 62%
    16:00 +22°C° 0 mm 3 mps 743 mmHg 64%
    17:00 +22°C° 0 mm 3 mps 743 mmHg 66%
    18:00 +20°C° 0.2 mm 3 mps 743 mmHg 73%
    19:00 +19°C° 0.2 mm 3 mps 743 mmHg 81%
    20:00 +17°C° 0.2 mm 3 mps 743 mmHg 88%
    21:00 +16°C° 0 mm 3 mps 743 mmHg 89%
    22:00 +14°C° 0 mm 3 mps 743 mmHg 90%
    23:00 +13°C° 0 mm 3 mps 743 mmHg 91%

    Day after tomorrow, 25 May, Saturday

    Time Temperature Precipitation Wind Pressure Humidity
    00:00 +12°C° 0 mm 3 mps 743 mmHg 90%
    01:00 +13°C° 0 mm 2 mps 743 mmHg 90%
    02:00 +12°C° 0 mm 2 mps 743 mmHg 89%
    03:00 +10°C° 0 mm 2 mps 743 mmHg 89%
    04:00 +10°C° 0 mm 2 mps 743 mmHg 89%
    05:00 +10°C° 0 mm 2 mps 743 mmHg 89%
    06:00 +12°C° 0 mm 2 mps 743 mmHg 82%
    07:00 +14°C° 0 mm 2 mps 743 mmHg 75%
    08:00 +16°C° 0 mm 2 mps 743 mmHg 69%
    09:00 +17°C° 0 mm 3 mps 743 mmHg 62%
    10:00 +19°C° 0 mm 3 mps 743 mmHg 56%
    11:00 +20°C° 0 mm 3 mps 743 mmHg 50%
    12:00 +21°C° 0 mm 4 mps 743 mmHg 51%
    13:00 +22°C° 0 mm 4 mps 743 mmHg 51%
    14:00 +22°C° 0 mm 4 mps 742 mmHg 51%
    15:00 +22°C° 0.1 mm 4 mps 742 mmHg 54%
    16:00 +22°C° 0.1 mm 4 mps 742 mmHg 56%
    17:00 +21°C° 0.1 mm 5 mps 742 mmHg 59%
    18:00 +20°C° 0 mm 4 mps 742 mmHg 64%
    19:00 +18°C° 0 mm 3 mps 742 mmHg 70%
    20:00 +17°C° 0 mm 3 mps 742 mmHg 75%
    21:00 +16°C° 0 mm 2 mps 742 mmHg 81%
    22:00 +14°C° 0 mm 2 mps 742 mmHg 86%
    23:00 +13°C° 0 mm 2 mps 743 mmHg 91%

    26 May, Sunday

    Time Temperature Precipitation Wind Pressure Humidity
    00:00 +12°C° 0 mm 1 mps 743 mmHg 93%
    01:00 +12°C° 0 mm 1 mps 743 mmHg 94%
    02:00 +11°C° 0 mm 1 mps 743 mmHg 95%
    03:00 +11°C° 0 mm 1 mps 743 mmHg 95%
    04:00 +11°C° 0 mm 1 mps 743 mmHg 96%
    05:00 +9°C° 0 mm 2 mps 743 mmHg 96%
    06:00 +12°C° 0 mm 2 mps 743 mmHg 88%
    07:00 +12°C° 0 mm 3 mps 743 mmHg 80%
    08:00 +14°C° 0 mm 3 mps 743 mmHg 73%
    09:00 +15°C° 0 mm 4 mps 743 mmHg 67%
    10:00 +18°C° 0 mm 4 mps 743 mmHg 61%
    11:00 +19°C° 0 mm 4 mps 743 mmHg 55%
    12:00 +19°C° 0.1 mm 5 mps 742 mmHg 55%
    13:00 +20°C° 0.1 mm 5 mps 742 mmHg 56%
    14:00 +20°C° 0.1 mm 6 mps 742 mmHg 57%
    15:00 +19°C° 0.1 mm 6 mps 742 mmHg 59%
    16:00 +19°C° 0.1 mm 6 mps 742 mmHg 61%
    17:00 +17°C° 0.1 mm 6 mps 741 mmHg 64%
    18:00 +16°C° 0 mm 5 mps 741 mmHg 68%
    19:00 +14°C° 0 mm 4 mps 741 mmHg 72%
    20:00 +13°C° 0 mm 3 mps 741 mmHg 77%
    21:00 +13°C° 0 mm 3 mps 742 mmHg 79%
    22:00 +12°C° 0 mm 3 mps 742 mmHg 81%
    23:00 +12°C° 0 mm 3 mps 742 mmHg 83%

    27 May, Monday

    Time Temperature Precipitation Wind Pressure Humidity
    00:00 +11°C° 0 mm 3 mps 743 mmHg 87%
    01:00 +10°C° 0 mm 3 mps 743 mmHg 90%
    02:00 +9°C° 0 mm 2 mps 743 mmHg 93%
    03:00 +8°C° 0 mm 2 mps 743 mmHg 92%
    04:00 +8°C° 0 mm 2 mps 743 mmHg 91%
    05:00 +9°C° 0 mm 1 mps 743 mmHg 91%
    06:00 +10°C° 0 mm 2 mps 743 mmHg 84%
    07:00 +12°C° 0 mm 2 mps 744 mmHg 78%
    08:00 +13°C° 0 mm 3 mps 744 mmHg 72%
    09:00 +16°C° 0 mm 3 mps 744 mmHg 70%
    10:00 +17°C° 0 mm 3 mps 744 mmHg 68%
    11:00 +18°C° 0 mm 4 mps 744 mmHg 65%
    12:00 +18°C° 0.1 mm 4 mps 744 mmHg 65%
    13:00 +19°C° 0.1 mm 3 mps 744 mmHg 65%
    14:00 +20°C° 0.1 mm 3 mps 743 mmHg 65%
    15:00 +20°C° 0 mm 3 mps 743 mmHg 63%
    16:00 +21°C° 0 mm 3 mps 743 mmHg 61%
    17:00 +21°C° 0 mm 3 mps 743 mmHg 59%
    18:00 +20°C° 0 mm 3 mps 742 mmHg 65%
    19:00 +19°C° 0 mm 2 mps 742 mmHg 70%
    20:00 +18°C° 0 mm 2 mps 742 mmHg 76%
    21:00 +18°C° 0 mm 2 mps 742 mmHg 77%
    22:00 +17°C° 0 mm 3 mps 742 mmHg 78%
    23:00 +17°C° 0 mm 3 mps 742 mmHg 79%

    28 May, Tuesday

    Time Temperature Precipitation Wind Pressure Humidity
    00:00 +17°C° 0 mm 3 mps 741 mmHg 79%
    01:00 +17°C° 0 mm 3 mps 741 mmHg 79%
    02:00 +17°C° 0 mm 3 mps 740 mmHg 79%
    03:00 +17°C° 2 mm 3 mps 740 mmHg 85%
    04:00 +15°C° 2 mm 4 mps 739 mmHg 90%
    05:00 +15°C° 2 mm 4 mps 738 mmHg 96%
    06:00 +17°C° 0.8 mm 4 mps 738 mmHg 96%
    07:00 +17°C° 0.8 mm 4 mps 738 mmHg 96%
    08:00 +18°C° 0.8 mm 4 mps 737 mmHg 96%
    09:00 +19°C° 0.1 mm 4 mps 737 mmHg 90%
    10:00 +20°C° 0.1 mm 5 mps 737 mmHg 85%
    11:00 +22°C° 0.1 mm 6 mps 736 mmHg 79%
    12:00 +22°C° 0.3 mm 6 mps 736 mmHg 76%
    13:00 +23°C° 0.3 mm 6 mps 736 mmHg 74%
    14:00 +23°C° 0.3 mm 6 mps 736 mmHg 72%
    15:00 +22°C° 1 mm 5 mps 736 mmHg 75%
    16:00 +22°C° 1 mm 4 mps 737 mmHg 79%
    17:00 +21°C° 1 mm 3 mps 737 mmHg 83%
    18:00 +20°C° 0.5 mm 3 mps 737 mmHg 86%
    19:00 +19°C° 0.5 mm 2 mps 737 mmHg 89%
    20:00 +18°C° 0.5 mm 2 mps 737 mmHg 91%
    21:00 +17°C° 0 mm 2 mps 737 mmHg 93%
    22:00 +16°C° 0 mm 1 mps 737 mmHg 94%
    23:00 +15°C° 0 mm 1 mps 737 mmHg 96%
    Show more